Погода в Бурунском

Россия / Чеченская Республика     43°51′33″N   45°46′40″E
темп.,
°C
ветер,
м/с
пор.,
м/с
влажн.,
%
обл.,
%
осадки,
мм/ч
давл.,
гПа
погр.,
м
4 августа, ср
ср400:00+28юз11350 0.0 101113
03:00+27з33460 0.0 101159
06:00+27з35510 0.0 1012165
09:00+32з56340 0.0 1012667
12:00+37зсз44230 0.0 10111746
15:00+38зсз33180 0.0 10102767
18:00+37зюз441963 0.0 1010609
21:00+30ююз5837100 0.0 1011176
5 августа, чт
чт500:00+30з61242100 0.0 1011324
03:00+29з6124185 0.0 1011378
06:00+26з695082 0.0 1012305
09:00+30зсз5542100 0.1 1013644
12:00+33сз453386 0.0 1012992
15:00+37сз132179 0.0 10102447
18:00+37ссв2322100 0.0 1009213
21:00+31зюз34345 0.0 101080
6 августа, пт
пт600:00+29сз47430 0.0 1010193
03:00+27в11530 0.0 100919
06:00+27ссв11570 0.0 100975
09:00+31ююз01410 0.0 1010607
12:00+37в36240 0.0 10082030
15:00+40в98150 0.0 10052658
18:00+35в810210 0.0 10051158
21:00+29всв713340 0.0 1006588
7 августа, сб
сб700:00+26в5125839 0.0 1005461
03:00+25в486783 0.0 1005283
06:00+24в34703 0.0 1004157
09:00+30вюв22435 0.0 1004577
12:00+37ююв23235 0.0 10021154
15:00+41ююв13145 0.0 10001825
18:00+39в6918100 0.0 1001568
21:00+32вюв2234100 0.1 1004112
8 августа, вс
вс800:00+29сз5946100 0.3 1005492
03:00+28з71052100 0.3 1006410
06:00+26з612526 0.0 1008369
09:00+32зсз68373 0.0 1008731
12:00+37зсз55270 0.0 10071402
15:00+39зсз44215 0.0 10062291
18:00+31зюз131445100 0.1 1009529
21:00+27зюз585995 0.2 1012293